Flag for Iran Weather past 2 weeks in Mashhad, Iran

Now
93 °F

Sunny.


Feels Like: 89 °F
Forecast: 67 / 93 °F
Wind: 7 mph from Northeast

Location: Mashhad Airport

Current Time: Aug 22, 2014 at 2:19:58 PM

Latest Report: Aug 22, 2014 at 2:00 PM


Visibility: 10 mi

Pressure: 29.89 "Hg

Humidity: 8%

Dew point: 23 °F

Location of MashhadLocation

Historic Weather in Mashhad — Graph

°F

Mashhad temperature yesterday

Maximum temperature yesterday: 95 °F (at 2:00 PM)
Minimum temperature yesterday: 66 °F (at 5:30 AM)
Average temperature yesterday: 83 °F

Past Weeks' High & Low Weather Summary

 TemperatureHumidityPressure
High100 °F (Aug 7, 3:30 PM)47% (Aug 15, 5:00 AM)30.07 "Hg (Aug 15, 5:00 AM)
Low64 °F (Aug 16, 4:55 AM)5% (Aug 7, 2:00 PM)29.80 "Hg (Aug 7, 1:00 PM)
Average83 °F18%29.94 "Hg
* Reported Aug 7 12:30 PM — Aug 22 1:00 PM, Mashhad, Weather by CustomWeather, © 2014

Note: Actual official high and low records may vary slightly from our data, if they occured in-between our weather recording intervals... More about our weather records

Advertising

Mashhad weather history for previous 24 hours

 ConditionsComfort  
Time TempWeatherWind HumidityBarometerVisibility
1:00 PM
Aug 22
91 °FSunny.12 mph9%29.89 "Hg10 mi
12:30 PM91 °FSunny.5 mph9%29.92 "Hg10 mi
12:00 PM91 °FSunny.5 mph9%29.89 "Hg10 mi
11:30 AM90 °FSunny.7 mph9%29.92 "Hg10 mi
11:00 AM90 °FSunny.14 mph10%29.92 "Hg10 mi
10:30 AM90 °FSunny.9 mph11%29.92 "Hg10 mi
10:00 AM88 °FSunny.12 mph13%29.95 "Hg10 mi
9:30 AM86 °FSunny.9 mph13%29.92 "Hg10 mi
9:00 AM84 °FSunny.14 mph14%29.92 "Hg10 mi
8:30 AM81 °FSunny.14 mph15%29.92 "Hg10 mi
8:00 AM79 °FSunny.12 mph16%29.92 "Hg10 mi
7:30 AM75 °FSunny.9 mph19%29.92 "Hg10 mi
7:00 AM73 °FClear.7 mph20%29.92 "Hg10 mi
6:30 AM70 °FClear.9 mph21%29.92 "Hg10 mi
6:00 AM70 °FClear.9 mph25%29.89 "Hg10 mi
5:30 AM70 °FClear.7 mph25%29.89 "Hg10 mi
5:00 AM68 °FClear.7 mph26%29.89 "Hg10 mi
4:30 AM68 °FClear.5 mph28%29.89 "Hg10 mi
4:00 AM72 °FClear.7 mph23%29.89 "Hg10 mi
3:30 AM70 °FClear.5 mph25%29.89 "Hg10 mi
3:00 AM70 °FClear.5 mph23%29.89 "Hg10 mi
2:30 AM79 °FClear.7 mph13%29.89 "Hg10 mi
2:00 AM79 °FClear.7 mph15%29.92 "Hg10 mi
1:30 AM79 °FClear.9 mph15%29.92 "Hg10 mi
12:55 AM79 °FClear.7 mph15%29.92 "Hg10 mi
12:30 AM79 °FClear.7 mph13%29.92 "Hg10 mi
11:55 PM
Aug 21
79 °FClear.7 mph15%29.92 "Hg10 mi
11:30 PM81 °FClear.12 mph13%29.92 "Hg10 mi
10:55 PM81 °FClear.9 mph13%29.92 "Hg10 mi
10:30 PM81 °FClear.7 mph14%29.92 "Hg10 mi
9:55 PM81 °FClear.7 mph14%29.92 "Hg10 mi
9:30 PM82 °FClear.9 mph13%29.92 "Hg10 mi
9:00 PM84 °FClear.12 mph11%29.92 "Hg10 mi
8:30 PM86 °FSunny.14 mph10%29.92 "Hg10 mi
8:00 PM84 °FSunny.7 mph11%29.89 "Hg10 mi
7:30 PM86 °FSunny.14 mph10%29.89 "Hg10 mi
7:00 PM88 °FSunny.14 mph10%29.86 "Hg10 mi
6:30 PM90 °FSunny.16 mph10%29.86 "Hg10 mi
6:00 PM91 °FSunny.14 mph9%29.86 "Hg10 mi
5:30 PM95 °FSunny.16 mph8%29.86 "Hg10 mi
5:00 PM95 °FSunny.9 mph7%29.86 "Hg10 mi
4:30 PM95 °FSunny.5 mph7%29.86 "Hg10 mi
4:00 PM95 °FSunny.5 mph6%29.86 "Hg10 mi
3:30 PM95 °FSunny.5 mph7%29.89 "Hg10 mi
3:00 PM95 °FSunny.5 mph7%29.89 "Hg10 mi
2:30 PM93 °FSunny.7 mph7%29.89 "Hg10 mi
2:00 PM95 °FSunny.12 mph7%29.89 "Hg10 mi
Weather by CustomWeather, © 2014

See weather overviewHow to use our weather pages